Home > Time Zones > World Clock > Weather > U.S.A. > Erie > Past weeks

Flag for U.S.A. Weather past 2 weeks in Erie, Pennsylvania, U.S.A.

Now
32 °F

Light snow. Ice fog.


Feels Like: 24 °F
Forecast: 9 / 30 °F
Wind: 10 mph from Northwest

Location: Erie International Airport

Current Time: Jan 29, 2015 at 8:20:27 PM

Latest Report: Jan 29, 2015 at 7:51 PM


Visibility: 1 mi

Pressure: 29.84 "Hg

Humidity: 88%

Dew point: 29 °F

Location of ErieLocation

Historic Weather in Erie — Graph

°F

Erie temperature yesterday

Maximum temperature yesterday: 23 °F (at 1:51 PM)
Minimum temperature yesterday: 2 °F (at 3:51 AM)
Average temperature yesterday: 14 °F

Past Weeks' High & Low Weather Summary

 TemperatureHumidityPressure
High47 °F (Jan 17, 9:51 PM)89% (Jan 18, 8:51 AM)30.45 "Hg (Jan 18, 8:51 AM)
Low2 °F (Jan 28, 3:51 AM)30% (Jan 29, 6:51 AM)29.56 "Hg (Jan 24, 2:51 PM)
Average25 °F73%30.03 "Hg
* Reported Jan 14 6:51 PM — Jan 29 6:51 PM, Erie, Weather by CustomWeather, © 2014

Note: Actual official high and low records may vary slightly from our data, if they occured in-between our weather recording intervals... More about our weather records

Advertising

Erie weather history for previous 24 hours

 ConditionsComfort  
Time TempWeatherWind HumidityBarometerVisibility
6:51 PM
Jan 29
34 °FLight snow. Fog.9 mph88%29.80 "Hg4 mi
5:51 PM35 °FLight rain. Fog.8 mph85%29.77 "Hg5 mi
4:51 PM35 °FLight snow. Fog.13 mph85%29.75 "Hg3 mi
3:51 PM35 °FLight snow. Fog.15 mph85%29.75 "Hg6 mi
2:51 PM34 °FLight snow. Fog.17 mph85%29.76 "Hg1 mi
1:51 PM32 °FLight snow. Ice fog.17 mph88%29.78 "Hg5 mi
12:51 PM32 °FSnow. Fog.18 mph85%29.80 "Hg0 mi
11:51 AM35 °FOvercast.22 mph44%29.83 "Hg10 mi
10:51 AM34 °FOvercast.23 mph35%29.81 "Hg10 mi
9:51 AM32 °FLight freezing rain. Mostly cloudy.21 mph41%29.87 "Hg7 mi
8:51 AM30 °FOvercast.18 mph36%29.93 "Hg10 mi
7:51 AM29 °FOvercast.20 mph38%30.01 "Hg10 mi
6:51 AM30 °FMostly cloudy.10 mph30%30.04 "Hg10 mi
5:51 AM27 °FMostly cloudy.20 mph37%30.05 "Hg10 mi
4:51 AM26 °FPassing clouds.15 mph40%30.11 "Hg10 mi
3:51 AM25 °FPassing clouds.18 mph46%30.16 "Hg10 mi
2:51 AM25 °FOvercast.12 mph46%30.21 "Hg10 mi
1:51 AM24 °FOvercast.14 mph46%30.21 "Hg10 mi
12:51 AM22 °FClear.14 mph48%30.24 "Hg10 mi
11:51 PM
Jan 28
22 °FClear.8 mph46%30.27 "Hg10 mi
10:51 PM20 °FClear.No wind45%30.30 "Hg10 mi
9:51 PM19 °FClear.7 mph47%30.32 "Hg10 mi
8:51 PM17 °FClear.3 mph62%30.34 "Hg10 mi
Weather by CustomWeather, © 2014

See weather overviewHow to use our weather pages